Weather History for Malaga, Spain

Change the Weather History Date:

Thursday, October 18, 2012

  Actual Average Record
Temperature  
Mean Temperature 63 °F -  
Max Temperature 71 °F 67 °F 84 °F (1998)
Min Temperature 55 °F 53 °F 50 °F (2000)
Degree Days  
Heating Degree Days 2    
Growing Degree Days 13 (Base 50)    
Moisture  
Dew Point 56 °F    
Average Humidity 76    
Maximum Humidity 88    
Minimum Humidity 60    
Precipitation  
Precipitation 0.08 in 0.12 in - ()
Sea Level Pressure  
Sea Level Pressure 29.68 in    
Wind  
Wind Speed 4 mph ()    
Max Wind Speed 13 mph    
Max Gust Speed -    
Visibility 6.9 miles    
Events Rain    
Averages and records for this station are not official NWS values.
T = Trace of Precipitation, MM = Missing Value Source: Averaged Metar Reports

Daily Weather History Graph

Daily Weather History Graph

Search for Another Location

Airport:

Trip Planner

Search our weather history database for the weather conditions in past years. The results will help you decide how hot, cold, wet, or windy it might be!

Date:

Astronomy

Oct. 18, 2012 Rise Set
Actual Time 8:28 AM CEST 7:37 PM CEST
Civil Twilight 8:02 AM CEST 8:03 PM CEST
Nautical Twilight 7:32 AM CEST 8:33 PM CEST
Astronomical Twilight 7:02 AM CEST 9:03 PM CEST
Moon 11:49 AM CEST (10/18) 10:02 PM CEST (10/18)
Length of Visible Light 12h 01m
Length of Day
11h 08m
Waxing Crescent, 12% of the Moon is Illuminated
Oct 18
Waxing Crescent
Oct 22
First Quarter
Oct 29
Full
Nov 7
Last Quarter
Nov 13
New

Hourly Weather History & Observations

Time (CEST) Temp. Dew Point Humidity Pressure Visibility Wind Dir Wind Speed Gust Speed Precip Events Conditions
12:00 AM 62.6 °F 53.6 °F 72% 29.83 in - Variable 2.3 mph - N/A   Clear
12:30 AM 60.8 °F 53.6 °F 77% 29.80 in - WNW 4.6 mph - N/A   Clear
1:00 AM 60.8 °F 53.6 °F 77% 29.80 in - WNW 2.3 mph - N/A   Clear
1:30 AM 60.8 °F 53.6 °F 77% 29.80 in - WNW 4.6 mph - N/A   Clear
2:00 AM 62 °F 53 °F 66% 29.81 in 9 mi WNW 3.5 mph - -   Clear
2:00 AM 60.8 °F 53.6 °F 77% 29.80 in - WNW 3.5 mph - N/A   Clear
2:30 AM 60.8 °F 53.6 °F 77% 29.77 in - WNW 1.2 mph - N/A   Clear
3:00 AM 60.8 °F 53.6 °F 77% 29.77 in - WNW 2.3 mph - N/A   Clear
3:30 AM 60.8 °F 53.6 °F 77% 29.77 in - West 2.3 mph - N/A   Clear
4:00 AM 59.0 °F 53.6 °F 82% 29.74 in - WNW 3.5 mph - N/A   Clear
4:30 AM 59.0 °F 53.6 °F 82% 29.74 in - WNW 3.5 mph - N/A   Clear
5:00 AM 59.0 °F 53.6 °F 82% 29.71 in - NW 2.3 mph - N/A   Clear
5:30 AM 59.0 °F 53.6 °F 82% 29.71 in 6.2 mi WNW 2.3 mph - N/A   Partly Cloudy
6:00 AM 57.2 °F 53.6 °F 88% 29.71 in 6.2 mi WNW 3.5 mph - N/A   Partly Cloudy
6:30 AM 57.2 °F 51.8 °F 82% 29.71 in 6.2 mi WNW 1.2 mph - N/A   Partly Cloudy
7:00 AM 59.0 °F 51.8 °F 77% 29.71 in 6.2 mi WNW 5.8 mph - N/A   Partly Cloudy
7:30 AM 57.2 °F 51.8 °F 82% 29.71 in 6.2 mi WNW 2.3 mph - N/A   Partly Cloudy
8:00 AM 60 °F 52 °F 69% 29.71 in 9 mi WNW 2.3 mph - -   Scattered Clouds
8:00 AM 57.2 °F 51.8 °F 82% 29.71 in 6.2 mi WNW 2.3 mph - N/A   Partly Cloudy
8:30 AM 55.4 °F 51.8 °F 88% 29.71 in 6.2 mi WNW 3.5 mph - N/A   Partly Cloudy
9:00 AM 57.2 °F 51.8 °F 82% 29.71 in 6.2 mi WNW 3.5 mph - N/A   Partly Cloudy
9:30 AM 60.8 °F 53.6 °F 77% 29.71 in 6.2 mi Calm Calm - N/A   Partly Cloudy
10:00 AM 60.8 °F 53.6 °F 77% 29.71 in 5.6 mi WNW 4.6 mph - N/A   Partly Cloudy
10:30 AM 64.4 °F 51.8 °F 64% 29.71 in 6.2 mi WNW 4.6 mph - N/A   Partly Cloudy
11:00 AM 64.4 °F 51.8 °F 64% 29.71 in 6.2 mi Variable 1.2 mph - N/A   Partly Cloudy
11:30 AM 68.0 °F 53.6 °F 60% 29.71 in 6.2 mi Calm Calm - N/A   Partly Cloudy
12:00 PM 68.0 °F 57.2 °F 68% 29.68 in - ESE 4.6 mph - N/A   Clear
12:30 PM 68.0 °F 57.2 °F 68% 29.68 in - ESE 5.8 mph - N/A   Clear
1:00 PM 69.8 °F 55.4 °F 60% 29.68 in - SE 6.9 mph - N/A   Clear
1:30 PM 69.8 °F 57.2 °F 64% 29.65 in - SE 9.2 mph - N/A   Clear
2:00 PM 69 °F 58 °F 61% 29.68 in 16 mi SE 10.4 mph - -   Partly Cloudy
2:00 PM 68.0 °F 59.0 °F 73% 29.65 in - SE 10.4 mph - N/A   Clear
2:30 PM 66.2 °F 59.0 °F 78% 29.62 in - SE 12.7 mph - N/A   Clear
3:00 PM 69.8 °F 60.8 °F 73% 29.62 in 6.2 mi ESE 10.4 mph - N/A   Partly Cloudy
3:30 PM 69.8 °F 60.8 °F 73% 29.62 in 6.2 mi SE 9.2 mph - N/A   Partly Cloudy
4:00 PM 69.8 °F 60.8 °F 73% 29.59 in 6.2 mi SE 9.2 mph - N/A   Partly Cloudy
4:30 PM 69.8 °F 60.8 °F 73% 29.59 in 6.2 mi SSE 8.1 mph - N/A   Partly Cloudy
5:00 PM 69.8 °F 60.8 °F 73% 29.59 in 6.2 mi SE 9.2 mph - N/A   Partly Cloudy
5:30 PM 68.0 °F 60.8 °F 78% 29.59 in 6.2 mi SSE 8.1 mph - N/A   Partly Cloudy
6:00 PM 68.0 °F 60.8 °F 78% 29.59 in 6.2 mi SSE 6.9 mph - N/A   Partly Cloudy
6:30 PM 69.8 °F 60.8 °F 73% 29.59 in 6.2 mi Variable 2.3 mph - N/A   Partly Cloudy
7:00 PM 69.8 °F 60.8 °F 73% 29.59 in 6.2 mi SE 4.6 mph - N/A   Partly Cloudy
7:30 PM 68.0 °F 59.0 °F 73% 29.59 in 6.2 mi ESE 3.5 mph - N/A   Partly Cloudy
8:00 PM 68 °F 60 °F 69% 29.62 in 16 mi East 4.6 mph - -   Scattered Clouds
8:00 PM 66.2 °F 60.8 °F 83% 29.59 in 6.2 mi East 4.6 mph - N/A   Partly Cloudy
8:30 PM 66.2 °F 60.8 °F 83% 29.59 in 6.2 mi Variable 2.3 mph - N/A   Partly Cloudy
9:00 PM 66.2 °F 60.8 °F 83% 29.62 in 6.2 mi Variable 1.2 mph - N/A   Partly Cloudy
9:30 PM 66.2 °F 60.8 °F 83% 29.62 in 6.2 mi East 5.8 mph - N/A   Partly Cloudy
10:00 PM 68.0 °F 60.8 °F 78% 29.65 in 6.2 mi South 8.1 mph - N/A Rain Light Rain
10:30 PM 66.2 °F 60.8 °F 83% 29.65 in 6.2 mi SSE 5.8 mph - N/A Rain Light Rain
11:00 PM 66.2 °F 62.6 °F 88% 29.68 in 6.2 mi SSE 6.9 mph - N/A   Scattered Clouds
11:30 PM 66.2 °F 60.8 °F 83% 29.68 in 6.2 mi SE 6.9 mph - N/A   Mostly Cloudy